Theta_e
308 309 312 311 311 312 312 311 311 312 313 314 315 315 315 316 318 316 315 315 315 315 316 318 323 329 327 326 325 323 322 321 320 319 319 318 316 317 320 323 327 329 329 330 330 330 331 330 330 330 330 330 330 331 331 332 333 333 334 334 335 335 335 334 334 335 336 336 335 335 334 333 333 333 332 332 332 333 333 332 332 330 329 329 329
308 309 311 311 311 312 311 311 310 311 311 312 313 312 312 313 313 312 311 311 311 312 312 313 313 315 323 325 325 321 319 318 317 316 316 315 314 313 316 318 321 324 327 328 328 328 328 328 328 328 329 330 331 331 332 332 332 332 333 334 334 335 336 336 335 335 335 336 336 335 335 333 333 333 332 332 332 332 333 332 331 330 330 330 330
307 308 311 311 311 311 311 311 310 309 310 310 311 311 311 310 310 310 309 309 308 309 310 309 310 311 312 315 316 317 316 314 313 314 314 314 312 311 312 315 317 319 322 324 325 326 326 327 327 328 329 330 330 331 331 330 331 332 332 332 334 334 335 335 336 336 335 336 336 336 334 334 333 333 332 332 332 332 332 332 331 330 329 329 330
307 308 311 311 310 311 311 311 310 310 310 310 310 310 310 309 309 309 309 308 308 307 308 307 307 308 309 310 311 312 312 312 311 310 310 310 310 310 309 311 314 315 316 319 321 323 325 326 327 327 328 330 331 331 329 329 330 331 331 332 333 335 336 336 336 336 335 334 336 335 335 335 334 333 332 333 332 331 332 332 331 330 330 330 330
305 307 311 311 311 310 311 310 310 311 310 310 310 310 310 308 307 306 306 306 306 307 307 306 305 305 306 307 308 308 309 309 309 309 308 308 309 308 308 309 309 313 313 314 316 320 322 324 325 326 328 329 330 329 328 329 330 331 331 331 332 333 334 335 336 335 336 336 336 336 335 335 334 334 333 332 332 331 331 331 331 329 329 329 329
305 306 310 311 311 310 310 311 310 311 311 310 308 307 307 308 307 305 304 304 304 304 305 304 305 305 305 305 306 306 306 306 306 306 306 306 306 307 307 307 307 308 308 313 314 315 318 321 323 324 325 327 330 329 329 329 329 329 330 330 330 332 333 334 334 335 335 336 337 334 334 334 334 334 333 332 331 330 331 330 330 330 330 329 329
305 305 306 309 310 310 310 311 312 311 310 309 308 307 306 305 306 305 304 304 304 304 304 304 304 303 304 304 304 305 305 305 305 305 305 305 305 305 306 305 305 306 306 307 312 313 314 317 320 321 322 324 327 330 330 329 329 329 329 329 330 330 331 333 333 333 334 334 334 332 334 333 333 333 331 333 331 330 330 329 329 329 329 329 329
303 305 305 307 308 309 310 311 312 311 311 309 308 307 306 306 306 305 303 302 302 302 303 303 303 303 304 304 304 305 305 305 304 304 304 304 304 304 304 304 304 303 305 305 307 310 313 314 317 318 319 321 323 326 328 329 328 328 328 328 329 329 330 331 331 331 331 332 334 333 332 333 331 332 332 332 331 329 330 329 328 327 327 328 326
299 303 304 305 306 308 309 310 312 311 311 310 309 308 307 306 305 306 305 302 302 301 302 303 303 303 303 303 304 304 303 304 304 304 303 302 301 302 303 302 303 305 305 306 307 307 312 312 313 315 315 317 320 323 325 328 328 327 327 328 328 328 327 327 329 329 329 330 330 331 331 332 332 331 331 331 330 329 329 328 327 326 326 326 325
296 300 303 304 306 306 307 308 309 310 309 309 309 309 308 306 304 305 305 304 304 303 302 302 303 302 302 302 303 303 303 303 303 304 302 301 300 300 301 302 302 304 305 305 305 305 306 310 314 315 315 315 317 320 323 325 328 327 327 327 327 327 327 326 328 328 328 327 328 329 330 330 331 331 330 331 330 329 329 326 326 325 325 324 323
294 296 300 303 304 305 306 306 307 307 306 306 306 307 307 308 306 305 305 303 302 303 303 303 303 302 302 302 302 302 303 303 303 303 302 300 300 301 302 301 302 302 303 303 303 305 305 305 305 305 306 314 314 315 318 321 323 327 327 327 327 326 326 325 326 326 326 326 326 326 326 326 327 329 329 330 327 326 324 323 323 323 322 321 320
293 294 296 299 302 304 305 306 306 305 304 304 303 304 304 304 304 305 305 305 305 304 302 303 303 302 302 302 302 302 301 300 301 301 301 302 300 300 300 300 299 300 301 301 302 302 303 304 304 305 305 308 312 312 314 317 320 325 327 327 326 325 325 324 324 325 325 326 326 326 325 324 324 324 324 323 323 323 322 322 322 321 320 320 320
294 294 294 296 298 302 304 305 305 305 303 303 304 305 305 305 305 304 303 303 303 305 306 305 302 301 303 302 302 302 301 301 301 300 301 301 300 300 300 299 299 299 299 300 300 300 300 301 302 303 304 304 305 309 311 313 315 319 323 325 326 325 324 324 323 323 324 324 323 323 324 325 324 324 323 323 323 322 322 321 321 320 320 320 319
295 294 294 294 294 296 301 303 304 304 304 304 304 305 305 304 305 303 304 302 301 303 304 303 302 301 299 301 301 300 300 301 301 302 302 302 302 301 301 300 299 299 300 299 299 298 299 299 300 300 301 302 302 303 305 307 310 315 318 321 324 325 324 323 323 322 322 322 322 322 323 324 324 323 323 323 322 322 322 321 320 320 319 319 318
294 295 294 294 293 294 295 300 303 304 303 303 303 303 304 304 304 302 301 303 301 303 303 303 299 301 303 301 299 298 300 300 302 303 303 302 302 302 302 301 301 299 298 297 296 297 298 298 299 299 299 300 300 302 303 308 309 314 316 318 320 323 324 324 323 323 322 321 321 321 322 323 323 323 323 322 322 322 321 321 320 319 319 318 317
294 294 293 293 294 293 294 295 299 301 301 301 302 302 303 303 304 303 302 300 300 301 302 302 301 299 297 300 300 300 297 297 297 300 303 303 303 303 303 302 301 299 297 297 297 298 298 299 300 300 300 300 300 300 302 302 308 314 315 316 318 322 324 324 324 323 323 321 321 321 322 322 322 322 322 322 322 321 320 320 319 319 319 319 318
294 294 294 293 294 294 294 294 294 296 299 299 300 301 301 302 303 302 302 300 301 300 302 303 302 301 298 297 297 297 296 297 299 298 299 298 300 301 301 302 301 299 298 298 298 299 299 299 300 301 302 302 302 301 302 303 304 304 307 314 319 321 322 324 324 323 323 323 322 321 322 321 322 322 322 321 321 320 320 320 320 319 319 319 319
294 295 294 295 293 294 294 293 293 293 296 295 297 298 299 300 301 301 301 302 300 301 299 301 301 302 302 300 298 296 294 296 297 294 297 299 299 301 301 301 301 300 299 300 299 299 299 299 301 302 302 302 303 302 301 302 304 303 304 307 317 319 321 323 323 323 324 323 323 322 321 322 321 322 321 321 320 320 320 319 320 319 319 319 318
294 294 294 294 293 293 294 294 293 293 294 293 294 295 296 299 299 300 300 301 301 298 300 300 300 301 302 301 301 301 299 296 295 295 294 296 297 298 299 300 300 300 300 300 300 300 300 300 300 301 301 302 301 301 301 302 309 309 312 314 316 317 319 321 322 323 322 321 322 322 321 321 321 321 321 321 321 320 319 318 319 318 318 318 318
295 294 294 294 293 293 293 293 293 292 293 291 292 294 295 296 298 298 298 299 298 298 297 299 298 298 300 299 299 300 299 299 298 297 293 291 293 296 297 298 298 299 300 300 300 300 300 299 300 299 299 300 300 300 301 301 300 302 307 312 315 318 319 320 322 322 323 321 322 321 321 321 321 321 321 320 319 320 319 318 318 318 318 318 318
296 295 294 294 295 293 293 293 292 292 293 293 291 293 293 293 293 294 295 295 296 297 296 295 297 297 298 297 298 297 298 298 298 297 294 291 292 292 294 296 296 297 298 299 299 298 299 298 298 298 298 298 299 299 299 300 300 300 306 310 313 315 318 319 320 322 322 323 321 321 321 321 322 321 321 320 320 320 319 319 319 318 318 317 317
296 295 294 295 294 293 293 293 292 293 294 291 291 293 293 292 292 293 293 293 294 293 294 296 296 297 298 297 296 295 296 295 295 295 294 295 291 289 290 292 292 294 297 296 297 297 297 297 297 296 297 297 297 297 297 298 298 299 301 308 310 313 316 318 320 321 322 321 321 321 321 322 323 322 322 321 321 319 319 319 319 319 318 317 317
296 296 295 295 294 294 293 293 293 294 294 291 291 291 291 291 292 292 292 291 291 291 292 293 295 295 295 295 295 295 294 294 294 295 295 292 291 293 294 295 295 294 294 297 296 296 296 296 295 295 295 295 295 295 296 296 297 298 299 302 306 309 312 315 318 320 321 321 321 320 320 320 321 320 322 321 321 319 319 319 318 318 318 317 317
296 295 295 295 295 294 294 293 294 293 292 292 292 292 292 292 291 291 291 290 290 292 290 290 291 293 293 294 295 296 296 294 294 293 294 293 293 292 291 290 291 292 294 294 295 296 295 295 294 294 294 294 294 294 294 295 296 298 298 300 303 306 309 312 314 317 320 321 320 320 320 320 320 321 320 320 320 321 320 319 318 318 317 317 317
295 296 295 295 296 295 294 293 293 294 293 292 292 292 292 291 290 290 290 290 290 291 289 289 289 290 291 292 294 295 294 295 295 294 293 293 292 289 289 290 289 289 290 291 290 292 295 294 294 294 293 294 294 294 294 294 293 296 297 298 301 303 305 308 311 314 317 320 321 320 320 320 320 321 322 321 320 320 319 318 318 317 317 316 315
296 296 297 296 296 296 295 294 293 293 294 293 293 292 292 291 290 290 290 290 290 290 290 289 290 290 291 290 289 291 292 294 292 293 293 292 291 290 290 288 287 288 287 287 288 289 288 293 293 294 293 293 293 293 293 293 293 295 296 294 297 301 302 304 307 309 312 315 319 320 320 320 320 321 321 319 320 318 317 319 318 317 316 315 315
296 297 297 297 296 296 295 294 294 294 294 293 295 294 293 293 292 291 291 291 291 291 290 289 291 289 289 290 290 289 288 289 289 292 293 293 293 291 289 287 284 283 285 286 286 288 290 289 292 292 293 293 293 292 293 292 293 294 294 293 292 298 301 304 306 308 310 313 314 318 320 320 320 320 320 319 318 318 319 318 317 317 317 315 315
297 297 297 297 297 297 296 295 295 295 295 294 293 293 293 292 292 291 291 293 291 290 290 290 290 290 289 289 289 289 289 289 290 289 289 292 291 290 288 286 284 283 283 284 284 286 288 289 289 291 292 293 293 293 294 294 293 294 294 291 290 291 298 300 302 304 307 309 311 314 317 319 319 320 320 319 319 319 318 317 317 317 316 315 315
298 297 297 297 298 297 297 296 296 295 295 295 294 293 293 293 292 291 291 291 291 291 291 290 290 290 290 290 290 290 289 289 289 290 290 290 290 288 288 288 287 284 281 280 284 283 285 289 288 289 292 292 292 293 292 292 293 293 291 290 289 289 293 297 299 301 303 305 307 310 312 315 319 319 319 319 319 320 319 319 317 317 317 317 317
298 299 297 297 297 297 297 296 296 296 295 295 294 294 293 293 292 292 292 291 291 291 291 291 291 290 290 290 290 290 290 289 289 289 289 289 288 288 288 288 288 286 284 283 284 286 285 287 290 288 290 291 292 292 292 292 294 294 290 289 289 289 294 296 298 299 301 303 304 306 309 311 314 317 318 318 319 320 318 318 319 320 318 318 317
297 297 297 297 297 296 296 296 296 296 296 295 295 294 293 293 293 292 292 292 291 291 291 291 292 291 290 290 290 290 290 289 289 288 289 289 289 288 288 288 288 287 286 285 283 286 289 287 287 289 291 291 292 292 292 292 292 293 290 289 289 291 293 293 296 298 300 301 302 303 305 307 309 312 314 317 318 318 318 321 320 318 316 318 317
297 297 297 297 297 296 296 296 295 295 295 295 295 294 294 293 293 292 292 292 292 291 291 292 293 292 291 290 290 290 290 289 289 289 289 289 289 288 288 288 287 287 287 286 284 285 287 287 287 288 289 290 291 290 290 291 292 295 290 290 290 292 291 290 293 296 298 299 300 301 302 304 305 307 309 311 314 316 317 318 320 319 320 318 315
298 297 297 297 297 296 296 296 295 295 295 295 295 294 294 293 293 293 292 292 291 292 291 291 292 292 291 291 291 291 291 290 290 290 289 289 289 289 288 287 287 287 287 286 285 285 287 288 289 289 289 289 289 290 290 290 290 291 292 289 289 289 289 289 289 293 296 297 299 299 300 301 302 303 305 306 307 309 311 313 313 313 314 312 312
297 297 297 297 297 297 296 296 296 296 295 295 295 294 294 293 293 294 293 292 292 292 291 291 291 292 292 291 291 291 291 290 290 290 290 289 289 288 288 288 288 287 288 287 286 285 285 286 287 288 288 289 290 289 290 289 289 289 289 288 289 288 289 289 288 289 294 296 297 299 299 300 300 300 301 301 303 304 304 305 305 306 307 308 307
296 297 297 297 297 296 296 296 296 296 296 295 295 295 294 294 293 293 293 293 292 292 291 291 292 292 291 291 291 291 292 290 290 291 290 290 289 289 289 289 288 288 288 288 287 285 285 286 288 287 287 288 288 289 289 290 290 290 289 288 288 289 289 289 289 289 292 295 297 298 298 299 299 300 300 300 300 300 300 301 301 302 303 304 305
297 297 296 297 296 296 296 296 296 296 296 295 295 295 295 294 294 294 293 293 293 293 292 292 292 292 291 291 291 292 291 290 290 290 291 290 290 289 289 289 289 288 288 288 288 287 286 286 286 287 288 288 288 288 289 290 289 289 289 290 289 289 289 290 289 289 291 294 296 297 298 299 299 299 299 300 300 300 299 298 298 299 299 301 302
297 297 296 296 296 296 296 296 296 296 296 296 295 295 295 295 295 294 294 293 293 293 293 293 293 292 292 292 292 292 291 291 291 290 291 290 290 290 289 289 289 289 289 289 288 288 286 286 287 287 287 287 288 288 288 288 288 288 288 289 289 289 289 290 290 290 292 293 294 295 296 297 297 298 299 299 299 299 298 298 297 296 296 297 298
297 296 296 296 296 296 296 296 296 296 296 295 295 295 295 295 295 294 294 294 294 293 293 293 293 293 293 293 293 292 292 291 291 291 291 290 290 290 289 289 289 289 289 288 288 288 287 287 286 287 286 287 286 286 287 288 288 287 286 287 287 288 288 288 289 290 291 291 290 291 294 295 296 297 297 298 298 298 298 297 297 296 295 295 296
296 296 295 296 296 296 297 297 296 296 296 295 295 295 295 295 294 294 294 294 294 294 294 294 294 293 293 293 293 293 292 292 292 292 291 291 291 290 290 290 290 289 288 288 288 287 287 286 287 287 287 287 287 287 287 287 287 288 287 285 285 287 287 288 288 289 290 291 292 292 291 291 292 293 295 297 297 297 297 297 296 295 295 295 296
295 295 295 296 296 296 296 296 296 296 295 295 295 295 295 295 294 294 294 294 293 293 293 293 293 293 294 294 293 294 293 293 293 293 292 292 291 291 291 290 290 289 288 288 287 287 286 286 286 286 286 286 285 287 285 285 285 285 286 287 285 286 286 287 288 288 288 289 289 289 291 292 292 292 294 295 296 296 296 296 296 295 295 295 296
295 295 295 295 295 295 295 295 295 295 295 296 296 296 295 295 294 294 294 294 293 293 293 293 293 293 293 293 293 294 294 293 292 293 293 293 293 291 291 291 290 289 289 288 288 287 286 286 286 286 286 285 285 285 284 284 285 286 286 286 286 286 287 285 285 287 288 287 288 288 288 289 289 288 289 289 290 293 294 295 294 294 295 296 296
293 294 294 294 294 294 294 294 294 295 295 296 294 294 294 295 294 295 294 294 293 293 293 292 293 293 293 293 294 292 291 291 291 291 292 292 292 293 293 292 291 290 289 288 288 287 287 286 286 286 285 285 286 285 285 286 287 286 285 284 284 286 284 284 285 285 287 287 286 285 287 289 288 288 287 287 288 289 289 291 291 292 293 296 297
292 292 292 292 292 292 292 293 293 294 295 295 294 295 295 295 294 294 293 293 293 293 293 292 292 292 293 293 293 292 291 291 291 291 292 292 292 292 292 293 292 292 290 289 289 288 287 287 287 286 286 286 286 286 286 287 286 286 286 286 285 285 284 283 283 285 286 287 285 285 285 287 288 286 286 287 288 288 288 289 292 293 294 295 296
292 291 290 291 291 291 292 292 292 293 294 293 294 295 295 295 294 294 293 293 293 292 292 292 292 292 292 293 293 294 293 293 293 292 291 291 292 292 292 292 292 292 293 292 290 289 288 287 287 287 287 286 287 287 286 286 286 286 286 286 285 285 284 283 284 284 285 288 286 285 285 286 287 286 286 287 287 288 288 290 293 294 295 295 296
290 290 291 291 291 291 291 291 291 292 292 293 294 294 294 294 295 294 293 293 292 292 292 292 292 292 292 292 292 293 294 291 291 292 292 292 291 291 291 291 291 292 293 293 293 292 292 289 289 288 288 288 287 287 288 288 288 286 286 285 285 285 285 285 285 286 283 286 285 284 284 284 285 285 285 287 287 287 288 291 292 294 295 296 296
290 290 290 290 290 290 290 290 291 291 291 292 293 294 294 294 294 294 293 292 292 292 291 291 292 291 291 291 291 291 292 293 293 292 292 292 292 291 290 290 290 290 291 292 292 291 292 292 291 289 290 290 289 290 290 289 288 286 286 285 286 285 285 285 287 287 285 286 285 284 283 283 284 285 285 286 287 287 287 290 293 294 294 294 294
290 290 290 290 290 290 290 290 290 291 292 292 293 293 293 294 294 293 292 292 291 291 291 291 291 291 291 291 291 291 291 292 293 292 292 292 291 291 290 289 289 289 290 290 291 292 292 292 292 291 292 292 291 291 291 290 290 290 289 288 288 287 287 287 286 285 284 285 286 284 283 285 282 284 285 285 286 285 286 290 293 294 294 294 294
290 290 290 289 289 290 290 290 290 290 291 292 292 292 293 293 294 292 291 290 290 290 290 290 291 291 291 291 291 291 291 291 291 292 292 292 292 290 290 290 289 289 289 290 291 292 292 292 292 292 292 293 293 292 292 291 290 290 290 289 286 285 285 284 284 285 285 284 286 285 284 285 283 284 285 284 284 284 285 285 290 293 294 295 295
289 289 289 289 290 290 289 289 289 289 290 291 291 292 292 293 292 291 290 290 289 289 289 290 290 290 290 290 291 291 291 291 291 292 293 292 291 291 290 290 290 290 290 290 291 291 291 292 292 293 293 293 294 294 294 294 291 290 287 286 285 285 284 283 284 284 284 284 284 286 286 284 283 283 284 283 283 284 284 284 286 292 294 294 295
288 289 289 289 289 289 288 288 288 288 289 289 290 291 291 292 291 290 290 289 288 288 288 289 289 289 290 289 289 290 290 290 291 292 293 291 291 291 290 289 289 289 290 291 289 289 290 291 291 291 291 292 292 293 293 293 293 291 287 286 287 286 285 285 284 284 285 283 284 286 284 284 284 283 283 283 281 283 284 284 285 286 291 293 294
288 289 288 288 288 289 289 288 287 288 288 288 290 291 291 292 291 290 289 288 287 287 287 288 288 288 288 288 288 288 289 290 291 292 292 291 290 290 290 289 289 289 290 291 290 289 288 287 288 288 288 289 289 290 290 291 292 291 290 288 288 286 285 285 285 284 283 283 285 287 284 284 284 285 284 279 281 283 283 283 284 284 285 287 289
Wind_Speed
8 9 7 7 7 7 6 6 6 6 6 6 7 6 6 6 6 5 6 5 6 6 7 6 1 6 7 8 7 5 4 5 5 4 3 4 5 7 10 11 11 8 3 2 3 3 3 4 4 5 7 8 8 9 9 11 11 12 13 13 14 16 16 16 16 16 17 18 18 17 17 16 17 18 17 16 15 15 15 15 16 15 15 13 13
7 8 7 7 7 6 6 6 6 6 6 6 6 6 6 6 6 6 7 7 7 6 7 7 8 6 3 6 6 3 4 5 5 5 5 5 5 5 10 11 12 11 10 8 5 4 4 5 6 6 7 7 7 8 9 9 10 11 12 13 14 15 17 18 18 18 19 19 19 18 17 18 19 16 17 17 17 17 16 17 15 15 16 15 14
6 8 7 7 7 6 5 4 5 6 6 5 5 5 5 6 6 6 5 5 6 6 7 7 8 7 7 7 6 5 6 5 6 6 5 5 4 3 5 11 11 11 11 9 8 7 7 6 5 6 7 7 8 8 7 7 9 11 12 13 14 15 17 18 20 20 20 20 20 20 19 19 18 16 18 18 18 18 18 18 17 18 17 16 16
5 6 6 8 7 7 6 6 5 4 5 5 5 5 5 5 6 6 6 6 7 8 6 7 8 7 7 8 6 6 6 6 6 6 5 5 4 4 4 5 9 10 10 9 8 7 6 6 6 6 7 7 7 6 5 7 8 10 11 13 13 14 15 17 19 20 20 21 22 22 21 20 20 19 18 19 20 19 19 20 19 18 18 16 17
6 6 4 6 6 7 7 5 5 4 4 5 6 5 4 5 6 5 6 7 8 7 6 8 8 7 7 7 6 7 6 5 5 5 5 4 4 4 4 4 4 6 7 7 7 7 6 6 5 6 7 7 7 6 6 7 9 10 11 12 13 13 13 14 16 18 20 21 21 22 22 22 21 19 19 20 20 20 20 20 19 18 18 17 19
5 7 4 4 5 6 7 6 4 3 4 4 6 6 6 5 5 5 6 7 8 6 7 8 6 6 6 5 6 5 5 5 5 4 4 4 3 4 4 4 4 3 3 4 5 6 6 5 5 5 6 6 8 7 7 8 9 9 11 12 13 14 14 14 13 14 15 18 19 21 22 21 20 19 20 20 22 20 19 19 17 18 18 21 20
6 6 6 4 4 5 7 6 5 5 5 5 4 4 5 5 5 5 6 7 7 6 7 7 6 7 5 4 5 5 5 5 4 4 4 3 3 3 4 4 3 3 2 2 2 2 3 3 3 3 4 5 7 9 10 10 9 10 10 11 13 14 15 15 15 11 11 13 18 21 22 21 21 20 21 20 17 20 20 19 17 13 15 18 17
7 7 6 6 4 4 5 6 4 4 5 5 4 5 5 4 4 3 5 6 6 7 6 6 6 5 4 4 4 4 5 4 4 3 3 3 3 3 3 4 3 1 1 1 1 2 3 1 1 2 4 6 6 7 9 10 8 9 10 11 12 13 14 16 16 15 11 9 13 17 20 17 17 20 19 18 18 17 16 16 15 14 13 13 13
7 7 7 6 5 5 4 4 4 5 4 5 6 5 6 5 6 6 4 4 6 6 5 5 5 5 4 4 3 3 4 3 4 2 2 3 2 3 3 3 3 4 3 3 3 3 4 3 1 0 3 5 5 6 6 8 8 8 8 9 10 12 14 15 15 15 16 13 6 11 16 20 21 21 19 19 19 19 22 20 18 17 15 16 14
5 7 7 7 5 5 5 5 4 5 5 5 5 4 4 4 5 5 5 5 5 5 6 5 4 3 3 4 3 3 3 3 2 2 4 3 3 2 2 3 2 2 1 1 1 1 0 1 2 2 2 3 5 6 7 7 8 7 7 7 8 9 10 12 13 15 15 17 17 12 5 11 18 17 18 21 21 21 20 19 17 13 12 12 14
4 5 6 7 7 6 6 5 4 4 4 4 4 3 3 3 4 5 5 5 5 5 4 4 4 4 4 4 4 4 2 2 1 1 1 1 2 1 1 1 1 1 0 1 1 1 0 1 1 1 1 3 4 4 6 7 7 6 7 6 6 7 7 8 8 9 11 14 18 19 21 23 17 8 19 21 19 17 13 14 15 14 13 13 11
4 5 4 6 7 6 6 7 5 3 3 3 3 2 2 3 3 3 4 4 4 3 3 4 3 3 3 2 2 2 3 2 2 1 1 1 0 0 1 0 0 1 0 1 2 2 2 2 2 2 1 2 4 5 5 5 6 7 7 6 5 4 4 6 5 7 9 9 11 14 15 17 19 22 22 18 12 14 14 13 13 11 10 10 9
3 4 4 5 6 6 6 7 7 5 3 2 1 1 1 1 2 3 3 4 3 2 1 2 1 1 1 2 1 1 0 1 1 1 2 2 2 2 2 2 2 1 0 0 0 1 2 2 3 4 3 2 3 5 6 6 6 6 7 6 4 4 4 3 3 3 6 8 11 13 14 17 20 20 19 18 13 11 11 11 10 11 9 10 11
2 3 3 3 5 6 6 5 6 7 6 4 4 4 4 4 3 1 1 4 2 1 2 2 0 1 1 0 1 1 2 3 3 3 3 3 4 4 4 3 2 1 0 1 2 2 3 2 2 2 3 3 2 3 4 4 4 6 6 6 5 5 6 3 3 2 1 5 5 9 11 14 16 17 18 18 17 16 14 13 12 12 11 11 11
2 2 3 2 3 4 6 6 5 6 7 6 5 6 6 6 6 4 3 1 2 1 2 4 1 2 2 2 1 0 1 2 3 3 3 3 4 4 4 4 4 3 3 1 2 3 3 2 2 2 3 3 3 3 3 4 4 7 7 6 6 6 7 7 4 4 3 2 5 5 9 12 14 16 17 19 19 18 17 17 16 14 13 11 9
3 2 3 3 2 2 3 5 5 5 6 6 5 5 6 6 6 7 4 3 3 0 1 2 2 2 2 0 2 2 2 1 3 3 6 5 6 5 4 5 5 4 4 4 5 4 4 3 3 4 4 3 3 3 4 4 5 7 7 7 7 7 8 8 9 6 6 5 6 7 9 12 12 15 16 17 17 18 18 19 18 17 14 16 15
2 2 2 3 2 2 2 2 3 4 4 5 4 4 4 5 6 6 7 2 6 2 1 1 2 1 4 1 1 1 1 1 1 2 3 3 4 4 4 4 4 5 5 5 5 5 5 5 5 5 5 5 4 4 4 4 4 3 4 7 8 8 8 9 9 10 9 9 9 10 12 11 13 14 16 17 17 18 18 19 19 18 18 16 16
3 2 1 2 3 1 1 2 3 3 3 3 4 4 4 4 5 4 5 6 3 5 3 2 1 1 1 1 2 2 2 3 1 2 1 5 4 5 5 5 5 5 6 6 6 6 6 6 6 6 5 5 5 5 4 4 4 4 4 5 9 8 9 11 10 10 10 9 12 13 14 15 16 16 16 16 16 16 17 16 16 16 17 17 18
4 4 3 2 3 3 2 2 3 4 2 2 3 1 2 1 2 4 4 5 5 3 6 3 2 1 1 1 1 1 1 1 2 1 2 1 2 5 5 5 6 5 5 5 6 6 6 6 6 6 5 5 5 5 4 4 5 6 9 10 11 10 10 11 13 12 11 5 13 17 16 17 17 16 17 17 17 17 16 16 16 17 17 18 18
4 4 4 4 3 4 3 2 3 4 2 3 2 0 2 2 0 1 3 4 4 3 4 5 2 2 2 2 2 2 2 2 1 3 2 1 3 3 3 5 4 5 6 6 6 7 6 6 6 6 6 5 5 5 5 4 4 5 5 11 13 14 13 12 14 15 14 10 9 13 16 18 18 18 18 18 19 19 18 17 16 16 16 15 16
5 5 5 5 4 4 4 4 4 4 3 4 3 0 1 1 1 2 1 2 2 2 2 5 4 2 1 2 2 3 3 4 3 1 3 2 6 4 4 1 2 4 6 6 6 6 7 7 7 6 5 5 5 5 6 5 6 4 6 12 14 15 15 14 14 16 15 14 12 12 14 17 19 20 20 20 20 20 20 20 21 20 19 17 17
6 5 5 5 5 5 4 4 4 4 4 4 4 1 1 2 4 4 2 1 2 3 4 4 3 4 3 1 1 2 2 3 3 4 4 4 7 4 2 3 4 5 5 6 6 6 6 6 5 5 6 6 6 6 5 6 6 5 6 12 14 15 15 15 17 18 17 16 15 13 12 17 21 23 21 21 20 21 21 20 20 20 20 20 20
6 6 6 5 5 5 5 5 5 4 4 4 5 4 4 4 4 4 4 4 4 4 3 3 2 4 5 5 4 4 4 3 4 4 4 4 3 6 6 5 6 7 4 6 6 6 5 5 5 6 6 6 6 6 6 7 7 8 11 11 12 15 15 15 16 19 19 19 18 17 15 14 18 22 21 20 20 21 21 21 21 21 21 21 20
4 6 6 6 6 6 5 5 5 5 6 6 5 5 5 5 4 5 5 5 5 5 4 4 4 4 4 4 5 5 5 4 4 2 3 4 3 5 5 3 4 3 3 2 4 6 6 7 7 7 7 6 6 6 7 7 8 12 10 11 10 12 14 16 17 17 19 21 20 19 18 17 17 19 19 21 22 22 20 21 22 22 21 21 21
5 6 6 7 7 6 6 7 7 7 6 5 5 5 5 5 5 5 5 5 6 6 6 6 6 6 6 5 6 6 6 5 3 4 4 3 3 4 4 2 6 5 3 2 3 3 6 7 7 7 7 7 7 7 7 7 7 10 12 8 12 11 14 16 17 18 18 20 22 22 20 20 19 18 21 23 21 21 23 23 21 21 22 21 21
6 6 7 7 7 8 7 8 7 7 7 7 7 6 6 7 5 6 6 7 5 5 6 6 6 6 5 5 5 6 6 5 4 3 4 3 5 5 4 3 3 7 3 3 3 4 4 6 7 7 7 7 7 7 6 7 7 10 13 9 10 12 14 16 17 17 18 19 21 23 23 22 21 20 20 23 23 23 23 21 21 23 22 20 22
7 7 5 5 8 7 7 7 7 7 7 7 7 7 6 6 6 7 7 6 7 7 7 6 7 7 6 6 7 7 6 5 4 6 5 5 5 4 3 7 6 4 6 3 4 8 9 4 7 7 8 8 8 7 7 6 8 11 11 8 6 10 14 16 16 16 17 18 19 21 23 24 24 23 20 21 23 24 22 22 23 22 21 22 23
7 6 6 6 7 8 7 8 7 7 7 7 7 7 7 7 7 7 8 5 7 8 8 7 8 8 8 7 6 8 7 6 6 7 6 6 6 5 4 5 6 9 3 8 5 7 6 7 4 7 7 8 8 7 8 8 7 10 11 6 7 7 12 15 15 15 16 17 18 19 21 24 25 25 24 22 20 20 23 22 22 23 24 25 25
6 5 6 5 6 7 7 8 8 8 7 7 8 7 7 7 8 8 9 7 8 9 8 8 9 8 8 8 9 8 8 7 6 6 7 6 7 7 7 8 7 7 6 6 9 5 3 7 4 4 9 8 8 7 7 7 9 9 6 7 7 7 9 14 16 16 17 17 17 18 19 20 23 26 26 25 24 21 22 24 24 26 26 26 26
6 5 5 6 6 6 7 7 8 7 9 8 8 8 8 8 8 9 9 7 8 8 8 9 9 8 8 8 8 8 8 7 8 8 7 8 7 7 7 7 7 9 7 9 12 6 6 4 6 5 4 8 7 6 6 8 10 11 7 7 7 8 11 14 15 17 17 18 17 18 19 20 21 23 25 26 26 25 25 24 25 28 29 28 27
7 7 6 6 6 6 6 7 7 8 8 8 8 8 8 9 8 9 8 8 8 9 9 8 9 8 9 10 9 10 8 9 8 8 8 8 8 7 7 7 7 8 8 7 10 6 7 9 6 5 5 7 7 7 6 7 9 11 8 8 8 11 14 11 15 16 17 18 18 17 18 19 21 22 23 25 27 26 27 25 25 27 28 28 28
7 7 7 7 7 8 7 8 8 8 8 8 8 8 8 9 9 8 9 8 10 11 10 8 7 8 10 11 11 10 8 7 8 8 9 8 8 8 8 8 8 8 8 8 11 17 5 6 6 5 5 6 7 7 8 6 8 13 8 8 10 12 9 8 13 17 17 18 18 18 18 19 20 21 23 23 25 27 28 27 26 26 23 21 22
7 7 7 8 8 8 8 8 9 9 8 9 8 8 8 10 9 10 9 9 10 10 9 10 9 9 10 11 11 11 8 9 9 9 9 10 8 8 8 8 9 8 9 10 12 16 11 7 8 8 6 4 5 8 9 8 7 7 8 8 8 7 8 8 8 13 17 17 18 19 20 20 19 20 21 22 23 24 24 25 25 25 24 20 21
6 8 8 8 7 8 8 9 9 9 9 10 9 8 9 10 10 8 9 10 11 11 9 11 10 10 10 11 12 11 9 11 10 10 10 9 9 9 9 9 10 10 10 10 12 11 18 5 7 6 8 6 11 6 10 9 9 6 9 9 7 8 8 8 8 8 16 18 18 20 21 20 19 19 19 20 21 21 21 20 19 17 15 13 10
6 7 8 8 8 7 8 9 9 9 9 9 9 9 10 11 11 10 9 10 11 12 11 12 11 10 10 11 13 11 8 10 12 11 10 11 10 11 12 10 12 11 10 12 10 13 15 15 7 7 8 7 11 10 8 9 9 9 10 10 9 8 8 9 9 8 13 18 20 19 21 21 20 20 19 19 19 19 19 19 18 17 16 16 15
8 7 7 8 7 8 8 9 9 9 9 9 9 9 11 11 11 12 11 11 11 12 12 12 11 10 12 12 13 11 10 11 12 11 11 10 11 11 12 11 11 12 11 10 13 12 11 13 8 9 7 9 9 8 8 8 9 9 10 9 8 10 10 10 11 10 12 19 20 20 21 19 20 20 20 19 19 19 21 21 21 20 19 19 18
7 7 7 6 7 8 9 10 10 9 10 10 10 11 10 10 11 12 11 11 11 12 12 13 12 12 12 13 13 11 10 12 12 12 11 13 12 11 12 12 11 11 9 10 12 11 12 13 13 8 7 8 8 8 8 8 8 9 7 10 9 10 11 11 9 10 14 19 20 21 21 21 22 22 21 19 19 21 21 21 21 21 21 21 20
7 6 7 7 7 9 9 10 9 10 9 10 11 11 11 11 11 11 11 11 11 12 12 12 12 12 13 14 14 12 12 13 14 13 12 14 12 12 14 13 12 10 11 11 11 12 12 14 12 13 7 9 7 8 7 8 10 9 8 8 6 9 10 9 10 9 8 9 9 11 15 17 20 23 23 23 23 23 23 22 21 21 21 21 22
6 7 7 7 7 8 9 9 9 10 10 10 11 11 11 11 11 11 12 11 12 11 11 12 12 12 13 13 14 13 14 14 14 14 13 13 12 14 15 14 12 11 12 12 11 12 12 13 12 13 11 9 9 11 7 7 8 10 11 8 10 10 8 11 11 9 7 10 13 17 14 12 15 15 19 24 23 24 24 23 22 22 21 22 22
7 7 8 8 8 7 8 8 9 8 9 10 11 11 11 11 11 11 11 11 12 12 12 12 12 13 13 14 14 14 15 15 15 14 14 13 12 13 14 12 12 13 13 12 11 12 12 12 13 12 10 11 8 9 4 5 9 10 10 11 14 12 11 10 12 11 8 9 10 9 11 14 15 17 21 21 23 24 24 22 23 22 23 22 22
7 7 7 8 8 9 8 8 8 8 9 10 10 10 10 10 10 11 11 12 12 12 12 12 13 13 13 13 14 14 16 18 21 19 17 16 12 14 14 12 13 13 13 12 12 12 12 12 13 10 11 11 11 9 8 10 14 16 9 8 13 12 10 8 10 9 11 10 10 9 10 11 11 11 10 10 13 20 20 23 19 24 23 21 21
7 7 7 8 8 8 9 9 8 8 9 9 13 17 14 10 9 9 9 10 11 11 12 13 13 13 14 13 14 19 21 21 22 23 23 23 23 19 15 12 14 13 14 14 13 13 12 14 14 12 13 14 13 12 13 13 12 8 8 9 13 13 7 10 9 9 9 11 9 10 12 10 11 11 10 12 12 13 12 13 14 15 16 19 19
8 8 8 8 8 8 8 8 9 9 9 10 16 16 16 17 13 11 11 11 10 11 11 13 13 14 13 14 13 15 17 19 20 24 24 25 26 26 27 23 18 16 14 15 15 14 14 15 14 13 14 16 15 12 13 13 10 12 12 11 12 9 10 10 13 7 9 11 10 11 12 10 10 12 11 12 13 11 12 13 17 21 19 19 21
9 7 8 8 8 8 8 7 8 9 10 13 17 17 17 17 15 12 10 10 11 11 12 13 13 13 14 14 12 10 11 14 15 16 20 24 26 26 27 26 25 24 22 19 17 14 15 15 15 16 14 16 15 12 12 11 13 11 12 11 12 12 12 12 12 13 4 12 11 11 14 7 9 11 12 13 12 11 13 16 18 20 21 21 21
8 8 9 9 9 8 8 8 9 10 10 14 17 17 17 17 17 15 10 10 11 12 13 14 14 14 13 13 13 11 11 17 16 15 15 16 20 25 26 26 26 27 27 28 26 20 14 16 17 17 17 15 15 14 14 14 11 12 10 11 12 12 13 13 14 13 6 11 9 11 13 7 10 12 13 14 10 11 13 17 22 20 19 20 21
8 9 8 9 9 8 8 8 9 9 10 13 16 17 17 17 17 15 11 12 12 13 14 14 13 14 14 13 13 13 12 13 13 13 14 15 14 14 16 17 18 22 26 29 28 29 24 18 17 19 19 13 17 15 14 13 12 14 13 14 12 13 14 17 16 13 6 8 12 7 9 9 9 9 14 12 9 11 10 13 19 22 24 25 24
10 11 11 11 11 10 10 9 9 10 10 15 17 18 17 17 18 15 11 11 11 12 12 13 14 14 14 13 14 16 15 13 13 13 14 14 13 14 15 15 16 17 18 20 21 19 19 19 20 21 20 16 18 17 12 12 17 16 15 16 15 15 13 9 8 8 7 8 9 7 14 8 7 11 14 11 9 10 9 11 19 23 24 24 24
9 9 9 8 11 11 11 10 10 11 10 15 17 17 18 17 18 11 10 11 11 11 12 12 13 12 12 13 14 16 16 15 17 19 19 14 13 16 16 16 15 15 17 20 22 23 22 20 20 22 20 20 19 17 15 14 13 12 10 8 5 6 7 10 14 9 11 7 10 11 11 12 7 11 13 7 7 10 9 10 15 24 23 23 24
10 11 10 10 9 10 11 10 11 12 11 13 17 18 18 20 16 11 10 10 10 11 12 12 11 11 11 12 13 14 15 16 17 18 20 17 15 18 17 17 16 15 17 14 18 26 28 29 30 31 31 28 25 24 22 22 16 11 8 8 13 9 10 13 14 11 12 7 9 12 12 13 8 10 10 5 8 10 9 10 10 17 24 23 24
12 12 12 11 10 9 11 11 10 12 12 13 17 18 18 18 16 12 11 10 12 11 12 12 10 11 12 17 17 15 16 17 17 18 19 16 15 18 16 17 18 19 19 13 7 15 26 28 31 33 32 30 28 28 26 24 22 15 13 17 14 10 15 14 15 13 9 8 11 11 10 17 6 8 9 5 4 7 9 10 10 11 19 22 26
12 11 11 11 12 11 10 11 13 13 12 12 14 16 17 17 15 10 10 9 11 12 11 12 10 9 11 11 16 17 16 18 22 20 21 18 16 17 16 15 19 21 20 12 11 15 11 12 18 21 22 26 24 21 22 28 26 22 18 17 11 13 16 15 14 10 9 12 11 14 14 14 10 10 8 4 9 8 7 9 10 11 11 11 13
Wind_Direction
338 334 321 338 347 0 352 352 348 356 3 9 358 3 356 4 29 42 50 51 45 27 22 32 86 160 164 161 167 169 148 139 134 108 93 86 75 54 52 45 49 60 63 9 338 327 347 9 360 339 333 322 317 318 316 315 312 306 299 290 282 275 270 262 252 245 239 240 241 238 237 231 236 244 243 236 229 223 216 211 211 210 211 195 190
342 332 332 342 351 5 6 354 357 357 359 9 8 12 7 10 23 29 43 36 46 34 28 38 41 27 114 152 154 105 94 102 92 82 74 79 74 59 50 49 47 51 58 55 40 29 13 1 357 338 318 312 316 319 325 322 324 323 319 309 296 284 272 263 256 245 238 237 235 234 233 239 239 240 244 235 228 221 212 211 207 209 207 192 188
342 332 338 343 354 355 9 349 15 5 359 2 7 21 29 29 33 38 54 61 59 45 32 41 43 37 40 64 63 80 77 73 74 82 77 67 65 61 54 57 50 43 41 38 25 14 1 351 338 326 318 315 316 315 311 325 338 342 344 337 320 301 286 272 262 255 246 239 237 233 229 232 234 230 235 231 226 219 213 210 204 208 201 191 183
332 333 340 349 358 358 3 14 21 20 3 359 6 17 38 43 46 51 58 67 65 54 42 46 50 38 39 50 56 71 72 78 82 72 75 73 66 53 46 49 53 47 42 36 30 19 5 351 341 329 319 320 316 302 310 337 352 360 360 354 345 332 311 290 274 261 255 247 240 236 228 226 228 226 228 224 223 217 211 209 204 205 196 186 186
327 325 343 359 6 2 354 14 22 25 12 20 13 360 13 42 47 45 55 60 60 63 63 52 51 42 39 47 57 60 61 75 76 78 80 80 75 65 56 48 41 41 39 39 29 23 15 357 339 338 337 326 330 324 343 352 355 8 8 7 4 355 338 319 298 275 258 248 239 235 233 229 222 218 222 221 218 216 211 210 207 207 193 190 192
331 323 334 2 18 14 353 359 20 26 26 22 29 17 18 27 45 56 60 64 66 59 64 61 51 52 46 44 59 59 63 66 69 79 81 83 86 88 80 67 52 36 12 20 27 29 18 7 353 348 343 333 332 349 349 357 360 7 6 8 7 3 356 343 322 299 276 258 243 242 238 232 226 222 223 218 218 215 211 208 202 197 191 190 192
330 328 320 349 19 25 3 352 16 17 23 27 34 29 25 31 22 45 60 63 71 68 69 78 71 55 51 48 60 68 69 72 67 67 72 88 84 86 87 77 73 46 33 344 336 49 25 18 17 14 15 7 351 352 5 1 7 8 9 7 4 2 0 357 355 335 302 263 242 240 239 234 228 223 221 216 213 214 208 201 188 182 190 188 182
332 331 329 337 5 21 19 355 5 26 30 25 30 42 22 23 24 32 63 57 64 59 51 74 74 80 70 62 71 71 83 83 78 79 80 74 82 90 96 104 98 121 214 226 228 214 178 80 50 51 39 34 32 16 9 6 2 13 9 2 4 8 8 8 7 6 357 313 261 248 249 245 242 230 215 204 206 206 196 173 173 169 183 185 188
337 332 334 331 348 357 2 8 15 25 29 33 28 32 43 29 25 30 35 83 84 85 74 65 67 68 67 68 64 86 87 98 108 120 113 100 112 129 131 143 154 191 211 210 213 226 183 175 265 284 57 36 29 29 20 19 13 11 5 4 5 10 13 15 18 18 17 14 319 258 248 241 231 227 216 208 203 193 191 174 168 174 182 184 178
345 337 336 331 337 349 346 351 24 47 37 36 37 29 47 60 48 30 34 35 47 62 70 66 59 52 48 49 38 67 104 112 115 152 150 146 147 150 158 157 159 189 198 236 231 248 263 239 289 293 111 42 22 16 6 8 17 19 17 14 9 9 13 19 29 35 44 51 49 42 353 277 254 240 218 202 184 180 175 175 171 172 183 173 162
343 344 343 335 336 347 344 342 11 38 60 67 49 22 24 46 73 69 73 68 64 55 58 61 48 35 32 25 16 9 15 33 40 64 100 133 130 137 219 196 151 197 189 257 300 5 350 322 306 296 297 14 12 5 356 358 360 12 19 8 358 357 7 25 41 43 45 62 73 72 67 63 53 305 225 180 158 148 133 121 122 130 128 127 136
340 348 354 344 338 344 344 339 352 23 40 52 61 57 54 59 54 94 94 85 97 105 107 80 85 88 63 38 26 14 2 6 359 15 36 4 348 202 145 98 233 186 98 352 4 358 339 310 309 291 303 348 348 351 344 349 353 3 4 7 347 339 355 351 26 59 54 51 70 77 81 80 77 81 79 70 78 94 100 104 104 108 115 124 133
339 355 353 353 345 337 347 344 342 351 14 29 43 47 28 84 151 111 107 102 84 93 116 125 144 47 156 156 191 223 134 267 262 253 221 196 192 209 178 197 223 163 199 17 347 315 307 314 320 326 329 344 339 334 329 339 353 358 352 348 342 301 307 344 2 53 84 88 89 90 94 98 102 102 102 104 104 97 106 112 118 115 108 111 109
329 344 347 359 354 346 340 346 344 341 338 355 2 14 1 10 17 55 89 126 128 118 146 88 97 205 137 255 272 239 206 216 221 226 206 202 190 193 178 199 201 169 135 181 246 254 261 267 283 302 307 313 318 313 316 320 328 342 331 328 332 300 288 312 326 347 77 115 112 116 122 123 123 123 122 123 127 133 128 119 120 131 130 127 120
321 337 322 344 13 357 340 334 349 341 344 347 357 5 357 359 0 22 352 337 122 164 117 120 167 294 238 120 257 106 294 304 256 228 205 213 199 201 192 191 194 172 179 224 252 249 252 257 276 276 279 293 289 292 295 302 303 305 304 314 323 297 283 277 251 296 264 179 151 131 130 132 136 139 140 141 138 139 140 145 149 150 147 135 148
291 317 330 337 360 349 353 345 339 345 335 341 349 6 356 350 357 352 17 2 349 358 155 130 123 76 27 126 233 168 328 293 218 247 188 204 191 210 193 195 186 183 178 214 224 220 225 219 236 242 247 253 252 260 268 268 275 294 302 309 299 295 288 277 268 265 227 209 193 160 151 151 153 155 153 152 152 153 157 161 163 163 165 166 172
271 284 275 303 316 336 352 339 330 330 338 345 355 355 339 355 352 356 350 13 342 348 320 83 99 131 144 59 335 69 194 241 158 271 192 214 237 225 217 199 189 191 198 220 217 209 209 215 221 223 230 228 233 234 236 249 260 269 294 293 283 281 279 279 274 260 251 227 207 187 171 167 165 167 165 164 165 168 171 172 172 174 171 178 176
240 265 283 294 306 308 324 321 323 331 348 345 325 2 359 14 350 341 340 344 348 333 318 324 190 172 182 181 172 177 187 262 60 269 283 223 218 212 218 209 205 197 201 208 205 215 205 218 213 218 213 214 219 223 223 232 238 245 248 264 267 272 277 270 274 279 264 248 215 203 188 180 178 179 178 177 177 180 179 180 179 181 180 187 190
221 224 237 247 263 289 291 291 293 301 301 344 324 359 336 42 360 351 329 332 347 335 318 292 326 318 237 264 205 246 145 75 255 349 321 308 218 203 232 221 212 216 215 216 214 209 216 211 214 211 210 210 212 218 227 234 241 233 240 246 252 261 267 269 266 268 272 268 221 214 200 195 192 192 189 187 189 192 197 198 196 195 196 197 197
201 212 218 225 235 267 263 268 278 273 281 272 269 353 20 339 278 265 300 288 295 292 295 317 288 277 215 223 244 261 247 239 199 178 182 245 295 287 264 228 217 222 221 223 218 209 211 213 210 211 213 214 208 210 218 227 231 241 239 247 253 255 255 259 260 260 262 262 245 224 220 204 202 199 196 200 200 198 196 197 205 201 204 207 206
200 202 208 211 213 223 240 244 262 276 274 271 264 165 202 245 306 324 295 306 326 305 336 285 314 269 252 284 241 254 250 230 222 159 215 244 275 230 262 299 252 256 243 230 228 218 209 209 207 208 210 220 214 214 213 216 226 228 234 241 249 251 248 249 253 255 256 258 247 238 233 228 212 210 206 203 201 199 195 193 196 201 204 208 209
211 206 204 204 209 211 223 223 231 251 265 261 260 208 237 240 239 239 254 283 285 284 257 262 297 305 313 267 260 266 254 288 250 225 258 226 244 276 232 205 263 266 239 234 228 225 215 211 213 211 217 221 222 214 210 214 217 223 234 241 247 250 251 249 250 251 252 253 255 254 247 235 228 217 208 205 204 202 199 199 200 200 199 202 206
199 210 205 206 206 207 215 219 217 227 236 250 249 227 232 235 237 235 242 236 243 252 279 282 272 291 298 297 260 235 214 207 230 224 210 239 270 276 279 253 243 277 266 221 221 226 215 213 214 224 226 230 229 224 218 218 215 220 224 234 241 245 248 252 254 253 252 254 255 254 252 251 238 228 210 206 208 209 208 207 208 206 207 207 210
207 192 209 206 204 212 211 215 218 220 228 226 230 220 229 225 225 222 232 236 235 242 249 256 258 240 251 257 260 263 274 262 250 228 204 235 215 258 270 300 307 256 279 251 241 217 216 220 221 220 227 230 231 226 227 219 221 219 221 229 227 235 243 249 254 257 257 255 254 253 251 249 244 229 222 219 216 209 210 213 214 214 213 214 213
243 223 209 198 201 205 208 213 221 219 221 219 224 224 223 218 218 224 224 227 226 222 231 235 230 232 233 240 233 238 244 253 258 279 285 263 262 280 270 271 260 288 289 290 266 251 221 228 222 224 225 227 229 225 227 226 225 223 218 224 222 225 239 249 256 259 260 256 253 252 252 248 245 235 223 218 219 219 221 217 219 221 218 216 213
231 226 217 198 199 204 202 210 213 215 214 216 216 221 219 216 217 223 227 232 229 225 228 233 235 237 225 240 253 242 243 234 236 241 247 259 268 247 271 291 269 273 280 270 256 266 281 241 228 225 224 225 226 220 222 226 230 227 220 220 226 227 232 242 249 254 256 259 257 254 252 249 245 242 234 229 227 226 224 220 219 219 220 219 219
221 228 225 192 196 203 207 207 211 213 213 213 216 215 214 216 221 225 230 221 224 227 236 232 238 244 245 231 240 248 246 242 226 233 214 212 205 215 214 273 299 271 271 265 269 225 241 256 220 223 220 221 221 215 216 220 227 228 225 221 231 226 230 240 245 248 252 253 254 256 256 253 249 244 240 238 235 232 229 226 224 219 217 219 222
230 224 226 205 195 201 206 211 210 212 213 213 213 211 212 214 222 224 233 220 223 223 226 223 233 232 235 239 236 242 237 237 231 230 223 220 215 210 203 206 239 279 275 278 254 260 216 236 267 227 214 215 219 212 211 212 220 227 221 220 226 232 232 236 241 245 248 251 253 253 253 255 254 250 245 240 236 233 231 228 225 223 221 223 226
235 224 229 221 210 205 208 214 216 216 217 218 216 216 212 217 221 222 229 223 223 225 221 219 224 221 225 226 226 235 235 233 236 229 227 223 219 215 203 214 198 234 274 280 258 244 270 210 228 253 210 211 214 213 206 211 216 210 212 215 220 226 231 232 237 241 244 247 248 250 251 253 257 256 252 247 242 239 236 233 230 227 225 225 228
231 235 227 227 226 217 218 223 222 218 219 220 218 219 215 221 223 225 226 217 225 229 225 221 224 216 221 224 224 233 229 223 228 227 224 220 220 217 217 213 192 217 228 249 273 183 257 243 210 244 217 214 211 213 202 215 216 206 205 209 217 224 227 228 234 239 243 244 245 247 248 249 252 256 260 256 249 244 240 238 236 236 232 229 232
236 237 230 230 226 228 223 230 227 228 225 222 217 220 215 225 227 232 228 219 224 230 228 218 226 217 224 227 224 231 223 224 225 226 225 220 221 217 222 210 215 215 220 224 266 260 183 250 245 229 204 215 206 208 208 213 215 208 207 211 217 223 227 232 233 237 240 243 244 243 245 247 247 248 251 258 260 254 249 246 241 238 237 235 238
235 231 230 226 226 229 228 228 232 232 232 229 220 220 217 223 225 230 232 222 228 232 235 223 224 219 225 230 227 228 223 219 224 224 225 222 216 218 216 213 221 214 207 226 237 262 202 228 239 248 225 217 212 206 218 220 219 208 209 213 218 220 225 231 234 232 235 238 240 241 242 243 245 246 248 250 253 258 255 252 254 252 246 247 250
231 235 231 230 227 226 227 226 228 230 229 232 224 223 223 228 227 228 231 225 230 237 233 236 228 226 227 232 233 230 219 219 224 223 224 223 220 222 216 216 223 214 208 222 238 260 261 215 242 245 241 215 242 207 216 216 217 216 214 218 215 216 220 225 229 232 231 232 234 235 238 240 241 244 247 248 250 253 256 259 259 258 257 248 250
227 236 234 233 231 229 229 232 230 230 229 229 225 218 225 230 234 227 231 228 233 238 231 238 233 231 230 233 237 232 221 226 225 225 221 222 220 221 222 215 223 222 209 218 237 242 266 235 238 236 246 216 252 191 209 213 224 211 218 220 219 214 217 221 226 230 229 229 231 230 233 234 235 237 241 245 248 250 253 255 257 262 263 263 264
243 236 241 238 236 231 234 236 235 236 233 233 228 222 226 227 231 232 227 228 232 236 235 236 235 232 235 235 238 231 224 228 230 230 225 226 221 222 226 218 224 224 217 216 226 242 251 261 227 236 229 228 227 235 218 219 218 204 215 219 217 218 221 220 225 228 227 227 228 226 229 229 230 231 232 235 237 242 246 248 252 253 253 254 252
250 246 240 245 240 236 237 240 236 238 239 239 237 230 230 228 230 234 230 227 230 234 237 240 237 231 233 237 239 231 226 229 231 229 228 227 226 226 227 225 222 226 222 218 223 234 246 264 241 226 221 230 238 239 227 220 219 220 218 224 212 219 221 221 224 227 227 228 229 228 227 224 224 225 228 229 230 233 238 240 242 244 245 247 246
252 253 253 241 243 239 240 241 242 240 240 240 241 240 236 233 233 235 234 231 231 233 235 237 237 233 235 236 240 232 227 232 235 231 226 225 226 226 229 227 224 224 224 221 227 227 241 246 259 240 229 230 236 233 216 220 234 236 229 226 217 218 223 224 223 226 228 227 231 232 232 231 229 229 224 224 226 231 235 236 237 238 239 239 240
260 252 250 249 239 243 243 246 246 246 245 242 242 243 241 239 237 238 239 237 237 237 237 237 235 233 235 237 239 234 230 229 235 234 229 228 225 226 229 229 225 223 225 228 226 230 233 243 247 261 227 236 243 238 219 213 223 238 244 242 242 233 226 232 229 226 219 220 223 233 235 234 234 233 231 229 228 230 233 233 234 235 235 235 236
263 264 257 254 249 244 248 248 247 247 248 246 246 244 243 240 239 240 241 241 241 240 241 241 238 236 236 238 238 233 233 232 235 234 232 229 227 227 226 227 222 222 224 227 226 228 230 239 245 245 253 237 230 245 226 217 224 224 234 241 247 237 227 224 237 227 218 225 226 226 225 224 230 234 235 233 230 231 231 232 232 232 232 233 233
271 265 264 261 260 252 253 252 252 250 250 252 251 248 245 244 243 242 241 243 244 243 244 243 241 241 239 239 238 235 233 233 233 235 230 233 226 233 229 224 219 219 223 224 226 226 230 234 237 242 237 245 238 246 224 208 238 246 228 227 240 241 230 224 228 228 223 219 225 228 229 233 237 237 239 238 235 234 232 233 233 232 231 231 232
271 265 265 266 270 267 264 260 261 255 253 253 252 251 249 249 245 246 244 243 243 247 246 246 244 244 244 241 240 238 234 235 232 232 230 225 226 233 231 219 220 217 221 222 224 223 231 232 241 235 243 239 237 231 225 218 222 229 223 216 242 243 241 235 239 225 224 217 227 220 222 216 226 227 227 230 232 233 234 231 233 232 230 229 228
277 275 275 271 266 266 269 268 263 261 259 258 257 253 249 250 251 249 249 246 246 247 250 251 251 247 246 244 243 238 238 237 236 236 235 232 230 229 232 217 219 217 219 220 221 221 224 229 232 227 233 237 233 222 227 226 231 241 234 215 233 242 241 249 256 231 214 216 220 224 227 213 216 227 219 230 232 224 228 226 229 226 226 224 221
288 286 281 280 277 272 269 268 270 267 265 265 264 263 261 255 254 258 255 257 252 252 251 252 254 255 254 249 249 245 242 242 241 239 237 237 236 235 235 230 221 215 219 221 225 217 220 228 230 225 230 238 235 222 224 231 221 221 224 223 232 235 229 234 248 252 205 199 215 227 237 213 207 222 219 227 228 218 220 225 223 224 222 217 220
299 297 295 285 284 283 279 275 271 272 272 271 270 271 269 267 261 259 259 259 257 257 257 256 256 255 257 257 253 250 244 241 242 242 242 241 241 240 239 237 234 227 222 220 223 223 222 229 232 227 225 232 236 220 224 219 225 221 222 222 223 223 231 231 239 243 209 183 210 219 242 201 203 221 226 230 224 217 219 221 218 221 220 219 218
305 306 300 299 294 290 284 282 279 276 277 277 279 278 276 273 270 265 263 256 257 256 256 257 257 257 257 258 260 253 251 246 242 242 244 245 242 242 244 242 239 235 233 230 228 228 224 228 233 235 224 227 233 229 213 218 210 220 216 222 223 224 227 231 237 242 224 191 197 224 241 211 191 219 228 233 219 220 222 223 223 220 219 218 220
314 310 307 303 300 296 291 286 284 282 279 285 284 283 282 279 275 271 265 262 259 258 256 255 257 257 256 259 262 259 254 251 247 244 244 244 245 242 241 238 239 239 237 237 234 232 231 232 234 238 236 212 232 231 216 206 203 215 211 222 216 222 224 228 231 235 220 172 199 208 249 225 196 214 232 232 212 225 216 215 217 222 224 225 226
322 320 319 317 310 305 301 295 292 290 288 290 290 289 289 285 281 275 270 267 265 263 260 258 259 260 262 261 261 263 263 257 254 247 248 248 247 248 245 241 236 237 234 233 232 232 232 233 237 241 243 229 232 235 222 208 213 216 211 216 212 217 228 247 268 243 230 203 198 185 242 230 172 216 235 223 216 223 217 218 217 221 224 224 225
313 309 306 305 303 305 303 303 301 295 293 292 293 294 294 293 290 284 276 270 269 267 265 263 261 261 261 259 261 264 264 264 261 256 255 258 258 255 252 250 246 240 237 233 229 231 233 234 235 239 241 237 233 232 226 220 221 221 224 230 214 205 215 234 240 231 231 208 195 203 240 246 175 211 239 209 204 224 217 218 219 222 223 223 224
317 316 311 308 307 305 306 305 302 298 297 297 297 296 296 295 296 289 283 278 272 270 270 267 265 263 260 257 258 263 264 263 262 260 260 257 259 260 258 258 256 252 249 240 228 234 236 237 241 244 245 246 243 241 236 227 221 210 203 214 222 189 206 231 239 232 236 184 209 203 228 250 204 212 240 203 204 221 217 217 216 219 222 224 224
321 318 315 313 311 308 305 303 300 299 299 298 297 296 295 293 290 289 286 284 280 278 277 272 267 266 260 255 254 258 263 265 265 260 260 257 258 261 261 262 264 261 259 249 223 236 234 235 239 243 246 247 246 245 243 238 227 208 201 219 214 183 219 223 234 230 235 198 210 187 214 239 209 208 232 235 224 233 217 217 209 214 220 224 224
315 315 314 313 313 311 309 303 302 298 297 300 299 297 298 299 299 294 290 286 287 284 282 283 275 262 268 259 254 254 258 265 266 261 259 255 256 260 260 262 261 262 259 257 244 247 237 231 240 244 248 248 246 243 242 238 230 222 218 224 205 199 218 222 226 233 250 241 208 173 210 236 207 223 190 228 242 238 202 214 204 208 211 215 222